Wind_Speed
11 8 8 7 9 8 10 7 3 7 4 5 2 8 7 10 13 4 6 4 4 5 1 3 3 4 6 4 2 6 9 9 10 8 10 9 10 11 12 12 12 14 14 14
9 6 9 11 8 12 13 7 4 14 8 7 9 7 4 5 8 7 5 4 7 5 3 5 4 6 7 7 3 3 8 7 5 6 9 9 13 11 9 9 10 11 13 15
8 14 14 14 12 11 10 6 4 2 4 3 1 5 7 7 5 3 5 2 2 10 4 6 11 8 7 4 5 8 7 8 6 6 7 9 12 14 13 12 12 11 15 18
13 15 14 16 18 14 7 5 3 6 6 3 4 5 2 3 1 2 5 2 7 8 6 7 12 8 9 8 10 8 9 8 7 8 10 12 13 13 15 15 12 11 17 20
13 15 18 15 18 18 10 7 3 8 10 6 7 5 5 2 3 6 6 7 6 8 6 4 14 13 13 12 12 10 13 10 9 8 11 12 15 16 16 15 16 15 19 24
10 13 15 14 17 13 17 10 12 10 9 8 7 7 8 5 3 5 3 6 7 6 9 7 6 16 20 17 16 14 13 11 10 10 7 7 11 15 16 16 16 17 18 21
11 7 9 7 12 12 17 17 15 9 5 7 3 7 6 7 1 4 8 10 11 8 9 9 10 16 18 17 17 16 14 14 12 13 10 10 11 14 17 17 15 15 19 21
11 15 18 11 10 11 27 21 16 5 10 10 9 5 8 6 3 4 7 6 10 14 11 9 8 16 15 16 18 15 16 17 16 15 13 11 12 12 17 18 16 15 16 19
11 15 17 14 7 12 27 22 9 12 7 11 7 9 9 9 4 3 3 5 6 12 13 7 7 13 16 15 23 19 18 18 18 17 16 15 12 9 13 17 18 16 15 17
14 13 11 14 11 13 21 15 14 12 12 10 7 5 5 4 2 6 2 3 3 15 14 9 7 13 17 14 24 20 21 20 18 19 19 17 16 12 12 15 18 19 20 19
5 14 18 19 13 12 14 16 16 18 15 8 8 3 2 5 8 5 2 3 5 10 12 9 8 9 12 10 22 16 18 17 18 19 20 19 20 17 14 15 17 21 21 23
14 13 19 16 12 17 13 8 7 15 18 15 14 3 9 8 4 2 3 4 6 6 7 7 6 5 9 10 16 20 15 16 23 17 22 25 22 20 20 22 22 22 22 21
21 26 21 24 19 21 19 16 14 15 20 22 17 10 8 7 7 5 3 5 7 6 5 3 6 9 8 7 8 11 13 15 14 16 30 27 25 24 22 23 25 25 22 21
27 22 22 24 19 19 20 21 20 20 22 21 23 16 15 5 8 5 3 7 5 3 4 2 3 3 4 4 8 10 14 15 20 17 17 33 28 27 26 24 24 23 24 23
32 28 27 22 20 24 25 25 25 24 25 26 21 22 21 14 5 5 9 7 3 3 1 2 3 2 2 1 3 9 11 13 13 14 14 20 25 30 30 31 28 27 23 24
35 35 32 30 24 26 31 30 23 31 28 29 32 28 26 23 15 5 5 10 12 9 6 3 1 1 2 4 5 8 8 8 9 11 14 17 16 18 21 30 27 29 27 26
40 42 33 36 32 30 33 37 31 32 26 35 35 28 31 21 16 17 17 18 12 12 10 9 7 6 5 6 7 9 9 11 12 11 11 13 14 15 13 20 28 25 30 28
51 44 42 34 36 36 34 30 30 31 36 32 35 31 28 19 16 19 15 14 19 16 15 11 12 10 10 7 9 11 11 12 14 15 14 12 11 12 15 13 18 27 35 33
51 40 39 47 40 38 37 34 28 25 24 34 38 30 19 13 17 17 12 9 17 20 17 15 14 13 12 12 13 14 15 14 15 17 16 14 12 11 15 17 19 27 24 32
53 50 48 44 49 45 36 36 34 29 32 20 18 17 25 21 16 13 15 14 16 18 18 18 17 14 13 15 16 18 19 19 16 17 19 17 17 15 15 16 21 22 26 25
47 52 54 50 49 45 37 29 25 35 27 25 24 17 19 19 13 6 11 13 15 17 17 18 19 18 18 18 18 18 18 20 18 16 19 21 19 20 18 17 19 21 20 19
46 47 47 55 51 44 37 34 30 31 29 27 25 19 16 14 15 8 9 13 17 19 19 19 19 19 20 21 22 24 23 21 19 17 17 20 20 22 22 20 19 20 23 25
43 46 37 38 42 45 44 37 35 29 34 30 25 20 22 19 18 15 15 18 22 22 20 19 19 21 21 22 22 22 23 21 20 19 18 18 20 20 20 22 22 23 24 24
39 40 39 43 42 45 40 40 42 40 36 35 32 26 22 17 17 17 16 17 19 20 19 20 22 22 22 23 22 21 20 20 20 20 20 20 22 22 23 23 24 24 25 26
38 40 41 34 34 38 45 45 39 41 40 33 35 31 29 20 18 17 16 16 18 19 19 20 21 22 21 20 22 22 20 18 19 20 21 23 23 24 24 23 22 22 24 27
44 47 41 42 37 39 41 39 36 34 31 36 35 32 27 17 13 15 16 19 20 19 18 20 19 19 20 22 23 24 22 19 18 17 18 22 22 23 23 20 20 21 21 24
Wind_Direction
282 276 235 227 218 230 211 149 74 130 108 51 55 64 86 78 75 74 311 273 218 185 156 109 186 195 183 217 157 142 141 163 143 158 163 156 155 159 163 169 184 202 197 180
278 247 221 220 200 212 207 184 123 122 81 63 74 76 87 122 86 81 58 77 108 169 171 149 212 197 210 184 256 205 161 174 172 162 173 180 180 171 177 192 203 207 201 175
239 228 217 196 196 198 200 166 124 182 248 266 137 90 73 85 66 141 92 136 141 180 233 253 207 183 200 154 176 206 212 202 179 181 185 184 184 173 184 190 209 202 195 177
254 253 225 213 208 222 198 204 226 283 280 231 244 217 157 149 271 296 229 236 184 181 191 175 171 231 192 171 155 186 199 215 198 201 200 190 199 193 190 183 195 195 187 176
278 252 238 236 210 210 185 217 256 282 285 283 292 253 243 204 301 306 265 224 202 189 215 192 218 242 198 189 170 183 200 217 224 226 183 183 200 203 195 186 184 186 181 187
270 268 268 250 243 204 187 217 244 254 296 298 270 197 168 191 346 336 290 223 198 206 211 200 248 206 195 192 188 194 196 212 222 227 198 190 194 204 198 194 189 183 182 180
236 203 174 181 210 218 205 214 236 251 307 348 326 198 230 198 271 17 317 277 228 208 209 190 205 195 202 202 207 198 197 214 212 222 206 190 188 196 200 193 193 184 183 194
208 174 154 143 154 184 186 211 230 235 257 314 323 308 220 156 61 356 317 281 232 221 225 219 227 215 229 214 218 199 205 209 212 213 204 192 189 186 197 193 193 191 189 196
207 200 192 140 174 176 194 208 214 214 240 285 317 341 237 156 130 311 61 27 213 203 206 194 192 200 223 249 229 202 205 207 211 215 209 203 199 189 190 201 204 200 199 202
203 227 209 177 189 191 193 210 198 217 246 258 319 342 157 165 111 251 208 296 309 193 192 187 200 213 226 237 208 201 210 212 215 216 220 212 222 200 195 207 214 215 214 214
207 224 207 203 195 206 199 206 219 223 240 263 289 296 132 273 296 248 303 66 99 159 190 179 140 187 202 201 196 208 216 217 225 231 234 228 217 209 204 208 221 222 214 215
182 225 219 212 185 178 188 215 253 239 246 236 257 221 278 340 99 277 7 75 92 146 184 193 154 167 207 231 200 210 222 234 235 239 243 239 230 217 203 202 211 216 213 218
204 216 214 217 202 190 199 214 219 235 241 244 259 244 274 307 297 355 74 78 63 82 94 154 183 204 223 225 211 212 237 257 235 235 242 234 232 229 217 220 212 213 217 220
217 224 227 224 223 213 217 215 213 222 237 245 260 273 272 273 291 272 160 138 103 83 82 104 94 133 165 216 252 262 280 272 272 273 270 222 229 230 232 224 226 228 223 225
240 231 232 224 218 233 225 234 224 223 239 246 257 270 272 263 318 245 320 197 50 16 210 182 164 155 121 156 235 247 256 272 276 266 273 260 254 230 235 236 229 231 229 229
228 244 241 233 225 234 235 234 238 230 235 245 252 257 262 265 257 286 336 283 294 327 330 326 356 258 251 252 255 258 261 269 279 273 271 271 272 283 277 236 225 229 231 233
223 233 231 233 239 238 244 237 238 234 247 260 258 261 256 266 271 265 281 260 258 290 290 279 290 300 296 284 270 270 279 288 284 278 273 268 268 273 287 247 247 237 239 239
239 235 227 231 231 236 240 242 240 241 246 250 243 258 255 269 284 281 285 255 244 268 271 266 275 291 298 304 306 304 291 277 281 288 288 281 281 268 273 267 224 236 240 246
239 223 225 231 227 234 238 239 243 238 239 246 242 257 250 272 295 270 263 250 239 250 253 259 268 276 300 310 314 310 301 286 274 273 278 281 278 273 263 255 255 242 241 253
238 222 218 229 228 222 232 239 249 247 231 233 240 272 262 263 282 254 245 250 248 254 262 266 273 284 296 308 313 314 305 295 282 271 270 271 275 276 269 262 256 257 253 267
239 225 227 230 229 229 222 232 245 255 254 251 260 259 245 250 276 284 256 258 260 260 265 271 282 293 303 304 303 303 293 284 282 269 262 267 266 269 271 269 272 268 266 266
231 236 238 230 232 227 224 233 244 252 255 252 260 237 220 252 275 277 304 285 276 273 272 272 280 290 295 302 305 306 302 294 284 272 255 246 251 253 261 266 268 270 271 267
234 232 237 235 237 237 233 240 250 249 246 249 241 250 236 250 262 268 284 272 267 268 271 276 284 289 295 298 302 299 298 295 285 275 269 262 256 256 256 263 267 265 267 264
228 233 232 231 238 235 236 237 235 237 246 248 244 237 253 246 247 250 259 263 265 269 277 280 282 288 294 294 291 293 290 286 280 271 267 266 264 261 262 262 261 262 263 264
231 227 234 227 229 227 231 238 248 243 245 232 247 249 248 249 247 250 267 273 272 272 272 279 285 289 290 295 300 300 293 284 276 273 270 265 262 264 265 263 261 260 254 252
226 225 227 226 222 228 230 231 239 242 239 239 242 248 233 214 225 248 260 266 268 272 282 283 284 291 295 297 298 299 299 293 283 273 268 266 263 263 263 261 264 266 263 256
Height
5867 5869 5870 5870 5871 5872 5873 5872 5875 5875 5876 5875 5873 5873 5871 5871 5871 5872 5873 5876 5878 5879 5878 5878 5881 5880 5880 5880 5881 5882 5883 5884 5884 5886 5888 5890 5890 5893 5895 5897 5899 5901 5905 5910
5866 5868 5868 5868 5870 5871 5870 5871 5875 5876 5875 5876 5874 5873 5872 5872 5871 5872 5873 5874 5875 5876 5877 5879 5880 5880 5880 5882 5883 5882 5884 5886 5885 5885 5887 5890 5890 5892 5895 5896 5898 5901 5905 5910
5864 5865 5865 5866 5867 5868 5870 5871 5871 5874 5874 5873 5873 5873 5871 5870 5869 5869 5870 5872 5873 5873 5875 5876 5879 5879 5879 5880 5883 5885 5885 5884 5885 5886 5887 5888 5890 5892 5893 5895 5898 5901 5905 5909
5862 5861 5864 5865 5866 5867 5869 5869 5869 5871 5871 5870 5870 5872 5871 5869 5868 5868 5868 5870 5871 5873 5873 5873 5876 5878 5878 5879 5881 5885 5887 5886 5886 5887 5887 5887 5890 5893 5894 5895 5898 5901 5905 5909
5859 5859 5858 5861 5865 5865 5868 5867 5868 5869 5868 5868 5869 5871 5871 5869 5867 5867 5867 5867 5869 5868 5869 5869 5872 5875 5877 5879 5880 5884 5887 5888 5888 5888 5888 5887 5889 5892 5894 5895 5898 5899 5903 5909
5855 5856 5857 5860 5861 5862 5862 5865 5866 5867 5867 5866 5866 5868 5868 5867 5867 5866 5865 5865 5864 5867 5867 5867 5870 5871 5874 5876 5877 5882 5884 5886 5887 5889 5888 5888 5889 5891 5894 5895 5898 5899 5901 5906
5853 5855 5857 5858 5858 5859 5860 5862 5863 5865 5865 5863 5864 5866 5866 5867 5865 5864 5862 5861 5862 5863 5865 5866 5867 5869 5871 5874 5876 5880 5882 5885 5886 5887 5888 5888 5888 5889 5893 5895 5898 5901 5902 5904
5851 5854 5856 5855 5855 5857 5859 5861 5862 5863 5864 5863 5863 5863 5865 5865 5865 5863 5860 5858 5857 5859 5862 5862 5863 5866 5868 5872 5877 5879 5881 5883 5884 5885 5886 5887 5888 5888 5891 5894 5896 5900 5903 5905
5851 5852 5853 5853 5854 5855 5857 5859 5862 5862 5862 5862 5863 5863 5864 5865 5865 5863 5859 5857 5856 5856 5859 5858 5860 5863 5867 5869 5871 5875 5879 5881 5882 5883 5884 5886 5888 5888 5890 5893 5894 5896 5899 5902
5850 5851 5853 5852 5852 5853 5853 5858 5859 5860 5860 5861 5861 5861 5862 5864 5865 5863 5859 5856 5853 5854 5857 5858 5860 5862 5864 5865 5868 5872 5875 5877 5879 5881 5882 5883 5886 5885 5887 5890 5892 5893 5895 5899
5844 5846 5850 5850 5850 5851 5853 5853 5855 5857 5857 5857 5858 5860 5860 5863 5863 5863 5859 5856 5853 5854 5856 5857 5857 5859 5861 5865 5866 5869 5873 5875 5877 5879 5881 5882 5882 5881 5883 5886 5889 5891 5892 5894
5837 5841 5844 5848 5847 5847 5850 5852 5853 5853 5855 5854 5855 5859 5858 5860 5862 5861 5858 5856 5855 5855 5856 5857 5857 5859 5862 5864 5863 5867 5871 5873 5873 5875 5878 5879 5881 5881 5880 5882 5885 5887 5888 5892
5833 5833 5837 5841 5844 5844 5845 5847 5848 5850 5851 5851 5853 5856 5856 5858 5859 5858 5857 5857 5856 5856 5856 5857 5857 5860 5861 5861 5863 5864 5867 5867 5863 5870 5873 5874 5876 5878 5879 5881 5880 5882 5884 5887
5827 5830 5832 5834 5841 5841 5842 5844 5844 5846 5847 5848 5849 5852 5853 5856 5857 5857 5856 5857 5857 5857 5858 5859 5859 5859 5859 5859 5859 5862 5863 5865 5866 5865 5863 5868 5871 5873 5874 5876 5880 5882 5883 5885
5821 5824 5828 5831 5834 5838 5839 5840 5841 5841 5842 5845 5847 5848 5851 5853 5855 5855 5856 5856 5858 5859 5858 5859 5860 5860 5859 5859 5860 5862 5863 5863 5862 5862 5862 5866 5866 5867 5868 5868 5874 5877 5878 5880
5813 5817 5821 5824 5827 5830 5834 5835 5837 5838 5838 5841 5842 5845 5847 5848 5852 5853 5852 5854 5855 5855 5856 5856 5857 5858 5858 5859 5859 5859 5860 5859 5859 5859 5858 5859 5860 5862 5861 5863 5866 5870 5872 5873
5805 5809 5812 5818 5821 5823 5824 5829 5833 5835 5836 5837 5838 5841 5843 5845 5848 5849 5850 5851 5853 5853 5854 5854 5854 5855 5856 5856 5856 5856 5856 5855 5855 5855 5855 5855 5855 5854 5855 5857 5859 5863 5865 5867
5794 5797 5806 5810 5813 5813 5818 5822 5824 5828 5830 5831 5834 5837 5840 5843 5845 5845 5846 5846 5847 5847 5847 5849 5851 5853 5853 5852 5851 5850 5850 5850 5850 5849 5849 5850 5849 5850 5850 5849 5850 5854 5856 5859
5778 5786 5794 5796 5802 5808 5811 5816 5819 5822 5825 5825 5830 5834 5837 5839 5841 5842 5842 5841 5842 5842 5843 5845 5847 5847 5847 5847 5846 5845 5844 5845 5845 5844 5844 5844 5845 5846 5847 5846 5846 5846 5848 5849
5767 5774 5781 5787 5792 5796 5805 5809 5813 5816 5818 5823 5828 5830 5831 5837 5837 5836 5835 5836 5836 5838 5839 5839 5839 5841 5842 5842 5840 5838 5836 5837 5838 5839 5838 5839 5839 5840 5841 5840 5840 5840 5842 5841
5757 5767 5773 5779 5782 5791 5798 5803 5807 5807 5818 5818 5822 5826 5826 5831 5831 5831 5831 5832 5832 5832 5832 5832 5832 5833 5833 5834 5834 5834 5833 5832 5832 5833 5833 5832 5833 5833 5833 5833 5833 5833 5833 5835
5751 5757 5762 5770 5773 5779 5792 5796 5800 5805 5808 5812 5816 5820 5822 5824 5825 5826 5827 5827 5826 5826 5827 5828 5829 5829 5829 5828 5826 5825 5825 5824 5825 5826 5827 5828 5828 5828 5828 5828 5828 5829 5828 5829
5744 5748 5753 5761 5766 5774 5782 5789 5793 5797 5801 5805 5811 5814 5817 5819 5820 5821 5821 5821 5821 5822 5822 5823 5823 5823 5823 5823 5821 5820 5818 5818 5818 5819 5819 5820 5822 5822 5822 5822 5822 5823 5823 5824
5733 5739 5745 5752 5758 5766 5773 5778 5781 5784 5792 5797 5803 5807 5811 5814 5815 5816 5817 5816 5816 5816 5817 5817 5817 5817 5817 5817 5816 5815 5814 5813 5812 5812 5813 5813 5814 5815 5816 5817 5817 5816 5815 5815
5723 5733 5737 5743 5750 5758 5764 5769 5775 5780 5785 5790 5794 5800 5805 5809 5810 5811 5810 5810 5810 5812 5812 5812 5812 5812 5812 5811 5809 5808 5807 5807 5806 5806 5805 5806 5807 5807 5807 5808 5808 5809 5810 5810
5715 5723 5728 5735 5743 5749 5755 5762 5767 5773 5778 5782 5789 5793 5799 5803 5804 5805 5805 5805 5805 5806 5807 5808 5808 5807 5807 5806 5804 5802 5800 5801 5801 5800 5799 5798 5799 5798 5799 5800 5801 5802 5802 5803